Location: Brunembert
(50.7122°N, 1.8935°E)
Time: 02:27:47
(UTC+00:00)

Cosmos 1500 Rocket - Pass Details

Date: 01 August 2021
Orbit: 602 x 632 km, 82.5° (Epoch: 18 September)

Event Time Altitude Azimuth Distance (km) Brightness Sun altitude
Exits shadow 22:11:53 28° 193° (SSW) 1,183 4.6 -17.6°
Maximum altitude 22:14:13 84° 279° (W) 636 3.6 -17.8°
Drops below altitude 10° 22:18:42 10° 9° (N) 2,019 7.0 -18.1°
Sets 22:20:58 0° 10° (N) 2,934 8.0 -18.2°
